Volver al catálogo

DMSP 5D-2 F13 DEB

ActivoSSO
NORAD 40521·DEBRIS·🇺🇸 United States

Lanzado Mar 24, 1995 desde Vandenberg Space Force Base

Loading…

Próximos Pases (próximas 24 horas)

TLE

ActualizadoSource: Space-Track

Época: Sep 14, 2026, 11:51 UTC

1 40521U 95015DH  26257.49387380  .00007705  00000-0  14341-2 0  9990
2 40521  98.5851 347.3779 0022295 181.2401 178.8749 14.65225509601344

Sigue DMSP 5D-2 F13 DEB en tiempo real con AllMySat

Download on the App Store